CZ-6A DEB, 55205

Orbit data source: Space-Track

CZ-6A DEB, 55205 is space debris in SSO originally from a launch on Fri, 11 Nov 2022 UTC launched from the Taiyaun Space Center, China (TSC). Debris objects in space refer to the collection of defunct objects orbiting the Earth. Examples of debris include non-operational satellites, rocket bodies, and fragments generated from explosions, collisions, or faulty payload assembly.

Loading next visibility...
Identifier
55205, 2022-151VW
Orbit
SSO
Country
Flag of CNCN / PRC
Related business
Manufacturer
SAST
Mission
Spacecraft
Bus & Motor
Unknown
Mass
Unknown
Launch date (UTC)
2022-11-11 (4 years ago)
Launch vehicle
Unknown
Launch site
Taiyaun Space Center, China (TSC)
Object type
Payload
Rocket body
Debris
Shape & HBR
Unknown shape, 0.1 m
Radar Cross Section
Small (<0.1 m²)

Expand to show TLE details & history
Last TLE update: 2 days ago

TLE from 2 days ago
0 CZ-6A DEB
1 55205U 22151VW  26171.12135161  .00007489  00000-0  12855-2 0  9996
2 55205  98.6142 233.7580 0068930 272.2740  87.0571 14.67452031185451
Epoch: 2026-06-20T02:54Z
TLE epoch observation values (Epoch: 2026-06-20T02:54:44.779Z)
Latitude
-0.00005°
Longitude
-78.26909°
Altitude
670.036 km
Speed
7.523 km/s
True Right ascension
15h 35m 01s
True Declination
0° 00' 00"
Sunlit
Object was in full shadow at epoch
Visualization orbit readout
Latitude
Unknown
Longitude
Unknown
Altitude
Unknown
Speed
Unknown
Apparent Right ascension
Unknown
Apparent Declination
Unknown
Sunlit
N/A
Visualization observer readout
Local Sidereal Time
00:50:02
Azimuth
Unknown
Elevation
Unknown
Doppler factor
Unknown
Orbital elements
Apogee altitude
714.862 km
Perigee altitude
617.747 km
Semi-major axis
7,044.442 km
Eccentricity
0.00689
Inclination
98.6142°
RAAN
233.758°
Arg. of periapsis
272.274°
True anomaly
87.84626°
Mean anomaly
87.0571°
Eccentric anomaly
87.45165°
Mean motion
3.67091 °/min
Orbital period
98.07 mins
BSTAR
0.0012855
Loading maneuver chart data...
Computing Atmospheric mass density...
Loading historical data...
Loading historical data...
Loading historical data...
Loading historical data...
Loading historical data...
Loading historical data...
Loading historical data...

Documentation

Showing up to 5 results
|